| time (UTC) | temp F | wind direction | speed MPH | gust MPH | rain 1hr in | rain 24hr in | rain mn in | humidity % | barometer mb |
| 20260509044547 | 59 | 130 | 0.0 | 0.0 | 0.00 | 0.00 | 0.00 | 90 | 1003.3 |
| 20260509043048 | 56 | 130 | 0.0 | 0.0 | 0.00 | 0.00 | 0.00 | 90 | 1003.5 |
| 20260509041545 | 58 | 130 | 0.0 | 0.0 | 0.00 | 0.00 | 0.00 | 90 | 1002.9 |
| 20260509040107 | 59 | 130 | 0.0 | 0.0 | 0.00 | 0.00 | 0.00 | 90 | 1002.9 |
| 20260509034549 | 63 | 130 | 0.0 | 0.0 | 0.00 | 0.00 | 0.00 | 90 | 1002.7 |
| 20260509033046 | 63 | 130 | 0.0 | 0.0 | 0.00 | 0.00 | 0.00 | 90 | 1002.5 |
| 20260509031544 | 63 | 130 | 1.0 | 0.0 | 0.00 | 0.00 | 0.00 | 90 | 1002.2 |
| 20260509030047 | 65 | 130 | 0.0 | 0.0 | 0.00 | 0.00 | 0.00 | 90 | 1001.9 |
| 20260509024544 | 66 | 130 | 0.0 | 0.0 | 0.00 | 0.00 | 0.00 | 90 | 1001.6 |
| 20260509023044 | 67 | 130 | 0.0 | 0.0 | 0.00 | 0.00 | 0.00 | 90 | 1001.3 |
| 20260509021544 | 69 | 130 | 0.0 | 0.0 | 0.00 | 0.00 | 0.00 | 90 | 1001.1 |
| 20260509020041 | 69 | 130 | 0.0 | 0.0 | 0.00 | 0.00 | 0.00 | 90 | 1001.0 |
| 20260509014538 | 70 | 130 | 0.0 | 0.0 | 0.00 | 0.00 | 0.00 | 90 | 1001.1 |
| 20260509013043 | 70 | 130 | 0.0 | 0.0 | 0.00 | 0.00 | 0.00 | 90 | 1001.0 |
| 20260509011550 | 71 | 130 | 0.0 | 0.0 | 0.00 | 0.00 | 0.00 | 90 | 1001.1 |
| 20260509010040 | 73 | 130 | 0.0 | 0.0 | 0.00 | 0.00 | 0.00 | 90 | 1001.0 |
| 20260509004542 | 72 | 130 | 0.0 | 0.0 | 0.00 | 0.00 | 0.00 | 90 | 1001.0 |
| 20260509003033 | 73 | 130 | 0.0 | 0.0 | 0.00 | 0.00 | 0.00 | 90 | 1001.2 |
| 20260509001532 | 73 | 130 | 0.0 | 0.0 | 0.00 | 0.00 | 0.00 | 90 | 1001.2 |
| 20260509000030 | 74 | 130 | 0.0 | 0.0 | 0.00 | 0.00 | 0.00 | 90 | 1001.4 |
| 20260508234528 | 73 | 130 | 2.0 | 0.0 | 0.00 | 0.00 | 0.00 | 90 | 1001.3 |
| 20260508233027 | 73 | 130 | 0.0 | 0.0 | 0.00 | 0.00 | 0.00 | 90 | 1001.5 |
| 20260508231525 | 73 | 130 | 0.0 | 0.0 | 0.00 | 0.00 | 0.00 | 90 | 1001.8 |
| 20260508230025 | 73 | 130 | 0.0 | 0.0 | 0.00 | 0.00 | 0.00 | 90 | 1002.0 |
| 20260508224522 | 72 | 130 | 0.0 | 0.0 | 0.00 | 0.00 | 0.00 | 90 | 1002.1 |
| 20260508223036 | 72 | 130 | 0.0 | 0.0 | 0.00 | 0.00 | 0.00 | 90 | 1002.2 |
| 20260508221519 | 72 | 130 | 0.0 | 0.0 | 0.00 | 0.00 | 0.00 | 90 | 1002.6 |
| 20260508220021 | 72 | 130 | 0.0 | 0.0 | 0.00 | 0.00 | 0.00 | 90 | 1002.9 |
| 20260508214515 | 71 | 130 | 0.0 | 0.0 | 0.00 | 0.00 | 0.00 | 90 | 1003.2 |
| 20260508213016 | 72 | 130 | 0.0 | 0.0 | 0.00 | 0.00 | 0.00 | 90 | 1003.4 |
| 20260508211515 | 71 | 130 | 0.0 | 0.0 | 0.00 | 0.00 | 0.00 | 90 | 1003.5 |
| 20260508210014 | 70 | 130 | 0.0 | 0.0 | 0.00 | 0.00 | 0.00 | 90 | 1003.5 |
| 20260508204521 | 71 | 130 | 0.0 | 0.0 | 0.00 | 0.00 | 0.00 | 90 | 1003.8 |
| 20260508203011 | 70 | 130 | 0.0 | 0.0 | 0.00 | 0.00 | 0.00 | 90 | 1004.1 |
| 20260508201511 | 69 | 130 | 0.0 | 0.0 | 0.00 | 0.00 | 0.00 | 90 | 1004.2 |
| 20260508200010 | 67 | 130 | 0.0 | 0.0 | 0.00 | 0.00 | 0.00 | 90 | 1004.3 |
| 20260508194509 | 69 | 130 | 0.0 | 0.0 | 0.00 | 0.00 | 0.00 | 90 | 1004.3 |
| 20260508193008 | 69 | 130 | 0.0 | 0.0 | 0.00 | 0.00 | 0.00 | 90 | 1004.6 |
| 20260508191509 | 68 | 130 | 1.0 | 0.0 | 0.00 | 0.00 | 0.00 | 90 | 1004.7 |
| 20260508190006 | 70 | 130 | 0.0 | 0.0 | 0.00 | 0.00 | 0.00 | 90 | 1004.7 |
| 20260508184505 | 68 | 130 | 2.0 | 0.0 | 0.00 | 0.00 | 0.00 | 90 | 1004.7 |
| 20260508183003 | 68 | 130 | 1.0 | 0.0 | 0.00 | 0.00 | 0.00 | 90 | 1005.0 |
| 20260508181606 | 68 | 130 | 2.0 | 0.0 | 0.00 | 0.00 | 0.00 | 90 | 1005.1 |
| 20260508180059 | 68 | 130 | 0.0 | 0.0 | 0.00 | 0.00 | 0.00 | 90 | 1005.5 |
| 20260508174556 | 66 | 130 | 0.0 | 0.0 | 0.00 | 0.00 | 0.00 | 90 | 1005.6 |
| 20260508173049 | 66 | 130 | 1.0 | 0.0 | 0.00 | 0.00 | 0.00 | 90 | 1005.6 |
| 20260508171546 | 66 | 130 | 0.0 | 0.0 | 0.00 | 0.00 | 0.00 | 90 | 1005.9 |
| 20260508170043 | 66 | 130 | 0.0 | 0.0 | 0.00 | 0.00 | 0.00 | 90 | 1005.9 |
| 20260508164539 | 65 | 130 | 1.0 | 0.0 | 0.00 | 0.00 | 0.00 | 90 | 1005.9 |
| 20260508163045 | 64 | 130 | 0.0 | 0.0 | 0.00 | 0.00 | 0.00 | 90 | 1005.9 |
| 20260508161533 | 64 | 130 | 0.0 | 0.0 | 0.00 | 0.00 | 0.00 | 90 | 1005.9 |
| 20260508160052 | 64 | 130 | 0.0 | 0.0 | 0.00 | 0.00 | 0.00 | 90 | 1006.0 |
| 20260508154526 | 63 | 130 | 0.0 | 0.0 | 0.00 | 0.00 | 0.00 | 90 | 1006.1 |
| 20260508153025 | 62 | 130 | 0.0 | 0.0 | 0.00 | 0.00 | 0.00 | 90 | 1006.5 |
| 20260508151518 | 59 | 130 | 0.0 | 0.0 | 0.00 | 0.00 | 0.00 | 90 | 1006.5 |
| 20260508150019 | 57 | 130 | 0.0 | 0.0 | 0.00 | 0.00 | 0.00 | 90 | 1006.3 |
| 20260508144510 | 53 | 130 | 0.0 | 0.0 | 0.00 | 0.00 | 0.00 | 90 | 1006.2 |
| 20260508143007 | 48 | 130 | 0.0 | 0.0 | 0.00 | 0.00 | 0.00 | 90 | 1006.2 |
| 20260508141504 | 44 | 130 | 0.0 | 0.0 | 0.00 | 0.00 | 0.00 | 90 | 1006.3 |
| 20260508140002 | 43 | 130 | 0.0 | 0.0 | 0.00 | 0.00 | 0.00 | 90 | 1006.3 |
| 20260508134559 | 43 | 130 | 0.0 | 0.0 | 0.00 | 0.00 | 0.00 | 90 | 1006.1 |
| 20260508133100 | 44 | 130 | 1.0 | 0.0 | 0.00 | 0.00 | 0.00 | 90 | 1005.7 |
| 20260508131556 | 46 | 130 | 0.0 | 0.0 | 0.00 | 0.00 | 0.00 | 90 | 1005.6 |
| 20260508130057 | 47 | 130 | 0.0 | 0.0 | 0.00 | 0.00 | 0.00 | 90 | 1005.1 |
| 20260508124550 | 47 | 130 | 0.0 | 0.0 | 0.00 | 0.00 | 0.00 | 90 | 1004.9 |
| 20260508123049 | 46 | 130 | 0.0 | 0.0 | 0.00 | 0.00 | 0.00 | 90 | 1004.8 |
| 20260508121602 | 46 | 130 | 0.0 | 0.0 | 0.00 | 0.00 | 0.00 | 90 | 1004.9 |
| 20260508120046 | 45 | 130 | 0.0 | 0.0 | 0.00 | 0.00 | 0.00 | 90 | 1004.6 |
| 20260508114544 | 44 | 130 | 0.0 | 0.0 | 0.00 | 0.00 | 0.00 | 90 | 1004.5 |
| 20260508113042 | 46 | 130 | 0.0 | 0.0 | 0.00 | 0.00 | 0.00 | 90 | 1004.4 |
| 20260508111540 | 47 | 130 | 0.0 | 0.0 | 0.00 | 0.00 | 0.00 | 90 | 1004.0 |
| 20260508110049 | 45 | 130 | 0.0 | 0.0 | 0.00 | 0.00 | 0.00 | 90 | 1003.8 |
| 20260508104536 | 47 | 130 | 0.0 | 0.0 | 0.00 | 0.00 | 0.00 | 90 | 1003.7 |
| 20260508103037 | 49 | 130 | 0.0 | 0.0 | 0.00 | 0.00 | 0.00 | 90 | 1003.7 |
| 20260508101536 | 52 | 130 | 0.0 | 0.0 | 0.00 | 0.00 | 0.00 | 90 | 1003.6 |
| 20260508100034 | 47 | 130 | 0.0 | 0.0 | 0.00 | 0.00 | 0.00 | 90 | 1003.6 |
| 20260508094533 | 50 | 130 | 0.0 | 0.0 | 0.00 | 0.00 | 0.00 | 90 | 1003.4 |
| 20260508093031 | 48 | 130 | 0.0 | 0.0 | 0.00 | 0.00 | 0.00 | 90 | 1003.5 |
| 20260508091530 | 49 | 130 | 0.0 | 0.0 | 0.00 | 0.00 | 0.00 | 90 | 1003.7 |
| 20260508090030 | 49 | 130 | 0.0 | 0.0 | 0.00 | 0.00 | 0.00 | 90 | 1003.5 |
| 20260508084528 | 48 | 130 | 0.0 | 0.0 | 0.00 | 0.00 | 0.00 | 90 | 1003.6 |
| 20260508083111 | 48 | 130 | 0.0 | 0.0 | 0.00 | 0.00 | 0.00 | 90 | 1003.5 |
| 20260508081527 | 48 | 130 | 1.0 | 0.0 | 0.00 | 0.00 | 0.00 | 90 | 1003.5 |
| 20260508080024 | 50 | 130 | 0.0 | 0.0 | 0.00 | 0.00 | 0.00 | 90 | 1003.6 |
| 20260508074529 | 50 | 130 | 0.0 | 0.0 | 0.00 | 0.00 | 0.00 | 90 | 1003.6 |
| 20260508073024 | 50 | 130 | 0.0 | 0.0 | 0.00 | 0.00 | 0.00 | 90 | 1003.6 |
| 20260508071524 | 52 | 130 | 0.0 | 0.0 | 0.00 | 0.00 | 0.00 | 90 | 1003.4 |
| 20260508070017 | 53 | 130 | 0.0 | 0.0 | 0.00 | 0.00 | 0.00 | 90 | 1003.2 |
| 20260508064536 | 53 | 130 | 0.0 | 0.0 | 0.00 | 0.00 | 0.00 | 90 | 1003.4 |
| 20260508063013 | 54 | 130 | 0.0 | 0.0 | 0.00 | 0.00 | 0.00 | 90 | 1003.3 |
| 20260508061511 | 53 | 130 | 0.0 | 0.0 | 0.00 | 0.00 | 0.00 | 90 | 1003.3 |
| 20260508060010 | 53 | 130 | 0.0 | 0.0 | 0.00 | 0.00 | 0.00 | 90 | 1003.2 |
| 20260508054510 | 54 | 130 | 0.0 | 0.0 | 0.00 | 0.00 | 0.00 | 90 | 1002.9 |
| 20260508053008 | 54 | 130 | 0.0 | 0.0 | 0.00 | 0.00 | 0.00 | 90 | 1002.7 |
| 20260508051508 | 52 | 130 | 0.0 | 0.0 | 0.00 | 0.00 | 0.00 | 90 | 1002.7 |
| 20260508050007 | 54 | 130 | 0.0 | 0.0 | 0.00 | 0.00 | 0.00 | 90 | 1002.7 |